GFSFLT1_850_thetae_159.txt.gz
Theta_e
349 350 349 348 348 347 347 347 349 349 351 353 352 350 348 348 349 347 347 349 347 346 344 343 347 351 349 349 351 351 350 349 345
345 347 349 350 348 348 349 347 350 350 351 353 353 351 351 349 348 347 345 345 343 346 344 345 345 343 348 349 348 348 351 350 349
342 343 347 349 350 348 348 348 350 351 351 353 353 352 351 349 349 347 346 347 347 344 347 345 347 348 349 350 348 352 351 347 350
341 343 344 345 349 349 349 349 349 350 351 351 352 351 351 349 349 349 349 349 348 347 346 349 349 347 351 349 350 351 350 350 345
341 341 343 345 346 348 350 350 350 350 350 351 352 351 349 349 349 349 349 348 348 348 348 347 348 350 348 348 350 350 349 350 348
342 342 343 346 348 348 349 349 351 350 349 351 350 350 351 350 349 350 348 349 349 349 349 348 348 349 349 351 351 350 350 350 350
342 342 346 347 349 350 349 350 350 351 351 350 349 350 350 351 350 350 349 349 349 350 350 350 349 349 348 350 350 350 350 351 350
342 343 344 346 347 348 350 351 350 350 349 350 346 349 350 352 351 349 349 349 349 350 350 350 349 349 348 349 350 348 348 349 351
341 342 341 344 345 345 345 348 348 349 350 350 346 347 349 349 350 349 349 350 349 350 350 349 349 349 349 349 349 347 346 348 352
341 342 344 343 343 344 343 344 345 346 347 348 347 345 347 350 349 350 350 350 350 350 350 351 350 350 350 349 349 348 348 347 347
341 342 344 342 342 342 342 338 337 339 342 344 345 346 345 350 350 349 350 347 349 349 349 350 351 350 350 349 350 349 350 349 348
343 344 345 343 343 342 340 333 332 333 333 334 337 339 340 344 344 344 344 342 343 346 346 347 349 351 351 351 349 348 348 348 348
345 348 346 346 344 343 343 342 341 334 332 331 332 329 333 336 339 341 342 343 343 344 345 347 348 348 347 348 349 349 348 343 342
346 345 345 344 344 343 341 343 343 343 340 341 342 340 331 329 335 340 340 340 341 341 341 341 342 342 342 343 341 340 340 340 341
345 344 344 344 343 342 341 341 342 343 342 342 341 339 340 340 336 341 340 341 341 340 339 339 339 340 339 338 340 341 341 340 338
341 337 335 334 335 335 336 336 338 340 340 340 338 339 339 339 340 340 340 341 340 340 340 339 340 340 339 339 338 338 338 338 338
336 336 335 334 333 333 334 335 335 336 335 335 337 339 339 339 340 340 339 339 338 337 336 337 339 337 336 336 336 337 338 338 338
336 336 336 335 334 333 333 332 334 334 334 336 336 338 338 337 338 337 336 334 334 334 335 335 334 334 334 333 334 335 335 336 336
336 336 336 335 335 333 332 332 334 336 334 336 336 338 337 336 335 334 334 334 334 334 334 333 332 333 333 333 333 334 334 333 333
336 336 335 334 332 332 332 333 332 336 337 336 334 335 335 334 334 333 331 332 332 333 332 332 332 332 332 332 333 333 333 332 332

GFSFLT1_850_thetae_162.txt.gz
Theta_e
348 349 348 348 349 347 343 346 348 350 350 349 347 348 345 343 344 345 345 347 345 345 347 346 349 347 346 344 347 348 346 343 346
347 348 349 348 349 349 348 346 349 349 351 350 347 349 348 346 344 342 348 348 344 347 346 346 348 347 347 346 348 342 349 348 345
343 345 347 348 349 349 349 348 347 350 351 350 349 350 350 347 345 344 345 347 346 344 345 348 346 351 346 344 347 348 348 345 346
340 342 343 346 349 349 350 350 349 349 348 350 351 348 351 349 348 346 342 344 344 344 346 342 348 348 349 348 347 345 346 343 346
342 342 344 345 347 350 351 349 348 351 351 351 352 349 350 350 348 347 347 341 346 345 346 344 345 332 348 345 347 348 349 346 348
343 343 343 345 346 349 349 351 350 349 351 352 351 350 350 350 349 348 349 346 345 348 345 343 342 347 346 340 339 341 346 344 342
343 342 346 348 350 351 350 351 351 352 351 351 353 352 352 351 349 348 348 349 349 344 347 346 343 346 347 347 344 346 346 346 345
343 343 345 348 348 348 348 349 348 351 351 351 351 351 352 350 350 349 348 348 348 349 346 346 347 346 346 347 346 347 345 346 347
342 344 343 346 346 347 348 349 350 350 348 349 349 349 349 349 348 342 347 346 347 349 347 347 347 347 346 347 345 348 348 348 348
342 343 343 345 345 346 347 344 347 348 349 349 349 349 347 346 347 346 337 339 348 347 347 346 347 348 347 347 347 347 348 347 347
341 342 345 345 344 344 338 337 339 342 345 346 347 347 345 345 345 347 348 347 347 349 347 346 346 346 348 347 348 348 346 347 349
342 341 345 344 343 343 343 336 332 333 337 342 343 344 344 344 345 341 344 346 349 350 350 348 348 348 349 349 349 348 347 346 350
343 345 345 345 344 344 343 336 333 331 331 332 332 333 335 338 338 339 335 335 344 344 345 346 346 345 346 346 348 348 347 345 344
348 349 349 347 344 344 345 343 343 343 343 342 341 337 330 330 333 335 337 339 340 343 343 342 343 344 346 345 345 345 346 346 345
347 346 345 345 344 344 342 343 342 344 343 342 341 341 342 341 338 335 339 339 341 341 341 340 340 339 339 339 338 339 341 340 339
345 345 346 345 343 341 340 340 341 340 342 341 341 340 340 341 340 339 337 338 339 339 339 338 338 339 339 339 339 339 339 338 339
340 337 336 336 337 337 337 337 336 340 340 338 337 337 338 338 339 339 339 339 339 338 338 339 339 338 338 337 336 336 337 338 338
338 337 336 336 336 335 336 336 333 335 335 336 337 337 338 338 337 338 338 336 335 334 335 337 337 335 336 334 335 335 336 336 336
338 338 337 336 335 334 336 334 332 333 335 335 336 336 336 336 336 335 336 334 334 334 334 334 333 334 334 333 334 334 335 334 333
338 337 336 332 333 333 334 330 332 332 333 334 334 335 336 335 334 334 333 334 333 333 332 332 332 332 332 332 333 333 333 333 333

GFSFLT1_850_thetae_165.txt.gz
Theta_e
344 345 346 343 343 343 345 347 346 343 345 348 346 345 343 346 345 343 345 345 344 347 346 344 346 344 345 343 343 343 342 341 340
341 344 346 347 346 344 346 346 347 343 342 346 347 345 342 341 342 344 345 344 343 345 347 347 348 348 346 347 344 343 344 347 344
344 346 347 348 348 347 348 345 343 345 345 339 347 348 344 343 341 342 342 343 345 343 345 348 346 349 348 346 346 347 345 344 345
345 345 346 347 348 349 348 346 345 348 349 347 347 348 346 344 345 342 341 342 342 344 345 345 346 345 347 348 344 346 346 348 344
342 343 344 345 348 350 349 349 347 350 351 351 349 346 348 346 344 343 341 342 342 342 344 346 346 346 348 346 344 344 347 345 346
343 344 344 345 347 347 349 351 350 349 348 350 348 345 349 347 347 346 345 342 340 342 343 346 345 344 345 344 338 340 349 344 341
343 343 346 349 349 349 349 350 351 352 351 350 350 350 351 349 347 348 347 346 345 339 341 344 344 344 344 344 339 339 341 339 341
343 346 348 348 348 347 340 339 346 349 351 352 351 350 350 348 346 342 347 347 345 345 341 343 343 343 341 341 345 345 344 345 345
343 347 347 347 346 345 341 340 342 347 349 350 351 350 347 349 346 336 347 346 345 346 346 347 344 344 346 345 344 344 345 344 345
342 344 346 346 345 336 340 343 345 347 348 348 347 349 348 348 347 347 347 345 340 343 346 346 348 346 345 345 346 347 347 346 347
342 343 344 345 341 333 335 335 336 341 344 346 346 345 345 346 347 346 345 340 342 341 337 346 346 346 345 346 345 344 344 345 345
342 343 344 344 337 332 332 332 332 333 337 341 342 342 344 344 345 345 343 338 339 335 336 346 345 345 346 346 346 344 344 345 345
342 344 344 344 341 335 333 332 332 331 331 331 331 332 334 335 337 339 339 340 336 332 345 347 346 345 345 345 346 346 345 345 344
343 344 344 343 343 338 341 343 342 342 341 341 341 339 333 334 334 336 338 338 337 337 341 344 343 342 343 343 343 343 344 344 344
346 346 345 344 344 343 344 343 342 343 343 343 341 341 341 342 338 333 337 340 340 341 338 339 341 340 340 339 339 339 339 341 342
348 346 346 344 342 340 340 341 340 340 341 343 342 340 339 340 340 339 339 339 342 339 340 339 338 338 338 339 339 338 338 338 338
344 345 344 345 341 339 338 337 334 337 338 340 339 337 339 337 338 338 338 338 337 337 337 338 338 337 337 337 336 335 335 336 337
342 339 340 337 336 336 336 335 333 336 335 335 336 335 337 337 337 337 336 337 336 334 335 335 336 334 335 334 335 335 335 335 335
336 336 335 336 335 335 336 335 330 332 332 333 334 334 335 335 334 335 336 334 334 334 334 334 333 333 333 333 334 335 334 334 333
337 336 337 335 334 332 332 331 330 330 332 333 333 334 336 335 335 333 333 333 332 332 332 332 332 332 332 332 332 333 332 333 332

GFSFLT1_850_thetae_168.txt.gz
Theta_e
344 344 345 345 344 345 344 345 346 346 342 343 343 344 345 341 345 345 343 344 345 345 345 342 344 343 341 343 341 339 339 339 340
342 343 345 345 345 344 344 344 345 347 346 342 342 342 344 343 344 343 343 343 344 345 342 345 345 344 345 344 344 343 344 343 338
341 342 345 345 345 343 343 342 341 345 344 344 342 345 345 342 343 342 342 343 343 345 346 347 346 346 346 347 346 343 347 344 347
337 341 342 344 345 345 346 345 344 345 345 345 343 345 345 345 343 341 341 344 343 345 343 345 346 346 346 348 346 345 347 345 344
340 343 346 346 345 346 347 346 346 345 345 344 344 341 341 346 346 344 342 339 342 343 345 343 345 345 345 349 347 344 344 347 345
340 344 345 347 349 349 349 347 347 347 345 343 346 346 344 347 347 346 345 342 339 341 343 344 343 345 346 345 345 346 345 342 344
344 344 345 347 349 350 349 347 346 347 347 348 348 348 347 347 346 347 345 343 342 339 341 345 345 345 346 344 345 345 342 338 346
343 345 346 347 348 347 345 345 349 350 349 349 349 350 349 347 346 347 345 346 345 344 343 342 343 343 344 344 344 344 342 341 339
345 346 347 347 346 343 337 335 335 340 346 349 351 351 349 348 347 347 345 347 346 345 344 343 342 342 341 342 344 342 340 342 344
343 346 346 346 344 336 338 341 342 344 346 348 348 350 349 346 347 347 346 344 342 346 340 343 343 343 343 343 344 346 344 344 344
343 344 346 345 343 334 333 333 335 339 344 346 346 345 346 346 345 345 345 336 337 339 342 339 339 341 344 345 344 343 345 345 344
342 342 343 343 342 332 332 332 332 333 338 340 341 342 342 343 344 345 345 345 345 344 340 339 341 341 340 345 344 344 346 346 345
342 342 343 343 335 332 332 333 332 331 331 330 330 331 333 335 337 339 342 343 339 338 336 335 339 338 337 343 344 344 343 343 343
341 342 343 343 337 336 332 335 336 338 340 340 341 337 334 333 334 337 337 338 339 341 337 337 339 341 343 342 344 343 343 344 343
342 343 344 342 341 338 342 342 341 341 341 342 341 341 340 342 335 335 337 338 339 338 336 338 335 337 340 340 340 340 340 340 340
344 344 343 343 343 343 343 343 342 340 340 342 342 340 339 339 340 339 338 342 339 339 340 339 339 338 337 338 339 338 338 338 338
344 344 344 344 344 342 339 340 340 338 338 338 338 338 336 336 337 338 338 337 338 338 338 338 338 337 337 337 338 336 335 336 337
346 345 345 342 340 338 337 335 331 337 334 334 334 335 335 339 336 335 335 336 334 334 335 334 334 334 334 334 335 335 334 336 336
343 343 343 341 337 336 336 335 333 330 333 330 333 333 334 334 334 334 334 333 334 334 334 333 332 333 333 334 334 334 334 333 334
340 342 337 336 335 335 333 331 328 328 331 332 332 332 333 333 333 333 333 332 332 333 332 332 332 332 332 332 332 332 331 331 331

GFSFLT1_850_thetae_171.txt.gz
Theta_e
340 343 343 344 343 344 343 342 342 343 344 344 344 344 345 344 340 341 341 343 344 342 344 343 342 343 344 343 344 344 341 339 338
341 341 344 344 342 344 344 343 343 344 344 345 345 343 343 345 343 340 342 342 343 345 345 342 343 344 345 345 341 345 343 340 343
343 343 344 343 342 344 344 344 344 345 345 345 345 343 343 344 344 340 338 343 342 343 344 345 344 344 345 343 343 344 344 341 345
339 340 343 345 344 344 344 344 344 344 344 345 345 345 343 342 342 344 341 341 342 342 343 343 343 343 345 342 343 344 345 343 344
338 339 341 343 344 345 345 344 344 344 343 342 342 344 344 343 343 344 343 342 342 342 343 343 344 344 346 347 346 346 346 344 344
342 340 343 344 342 344 345 345 344 346 345 345 344 344 344 343 343 345 346 344 342 342 343 344 344 344 342 345 345 345 347 346 343
342 343 346 347 347 346 347 348 348 347 347 346 345 345 346 344 344 342 343 346 346 344 341 341 343 343 343 341 343 344 347 345 343
341 344 347 347 347 346 347 346 344 346 347 347 347 346 345 344 345 345 344 345 344 344 344 342 341 342 342 342 342 343 344 344 345
343 346 349 348 348 347 346 345 347 348 348 348 347 347 347 347 348 348 347 346 344 339 343 342 343 341 341 342 342 342 343 342 344
345 347 347 347 345 339 335 336 336 338 339 342 346 348 349 350 350 347 348 347 346 344 339 335 341 342 341 341 341 341 341 343 343
344 344 345 344 343 339 333 334 335 338 342 344 346 346 347 349 349 348 345 345 345 345 343 342 342 340 342 344 341 341 342 342 342
343 341 340 343 342 339 331 332 331 334 337 341 343 343 343 344 345 346 345 344 344 344 341 343 344 338 341 340 341 342 343 343 343
341 339 343 342 342 336 332 332 330 331 330 330 331 332 333 336 339 341 344 343 343 343 340 342 342 340 340 339 337 340 340 344 342
341 340 341 343 342 337 332 332 331 331 333 336 337 335 336 332 334 336 336 338 340 339 339 339 337 336 337 340 338 337 339 340 342
341 341 343 343 341 333 332 332 335 338 339 340 339 340 339 340 334 335 337 338 338 338 338 338 338 336 336 336 341 340 340 341 340
341 341 343 343 338 336 336 341 340 340 340 341 341 341 339 339 342 339 337 340 338 341 338 337 337 336 338 338 337 338 337 338 337
341 342 343 342 339 339 342 342 341 340 338 337 338 337 337 339 340 338 336 340 337 339 339 339 338 337 337 337 338 335 333 332 337
342 343 343 342 341 343 342 341 340 339 337 336 333 334 335 337 337 338 336 335 335 337 335 335 335 335 335 336 336 335 335 334 336
342 343 343 343 343 342 338 336 332 331 335 333 329 332 332 335 335 334 333 333 333 333 332 332 333 332 333 334 334 334 334 334 334
343 344 344 343 341 337 335 334 333 330 330 331 328 331 331 332 332 333 333 331 332 332 332 332 331 332 332 333 333 332 333 333 332

GFSFLT1_850_thetae_174.txt.gz
Theta_e
340 340 341 342 342 344 342 341 340 339 342 342 343 342 342 343 343 343 341 341 341 342 342 341 341 342 343 343 342 342 345 342 339
339 341 340 340 343 344 343 342 341 340 341 343 343 343 343 342 344 343 342 341 341 343 343 342 341 342 343 344 345 344 345 344 339
339 340 341 342 342 342 343 343 343 342 342 343 343 343 344 343 343 344 344 340 342 343 343 342 343 342 342 344 345 345 342 343 342
340 339 340 340 341 342 343 343 343 343 343 342 343 344 344 344 344 344 344 344 341 342 342 342 343 344 344 343 344 344 342 343 343
340 340 340 339 341 343 342 342 343 344 344 343 344 345 345 345 344 344 344 343 344 341 341 343 342 342 343 342 343 342 343 345 345
339 338 339 340 343 344 344 344 344 344 344 344 344 344 344 345 344 344 344 343 342 344 342 342 342 343 343 343 344 344 345 345 345
340 339 340 342 341 342 342 344 345 345 344 343 343 343 344 342 343 343 343 343 343 345 343 342 342 344 344 343 344 343 342 344 344
340 342 345 346 345 345 346 346 346 346 346 346 346 346 346 345 344 345 345 344 343 343 344 344 343 343 342 341 343 343 343 340 342
341 343 345 346 346 345 343 343 344 346 346 346 346 347 347 347 346 346 345 344 344 344 343 339 336 343 342 340 341 341 341 341 340
339 343 344 345 344 343 343 345 343 340 339 340 342 345 347 348 349 349 348 347 346 345 344 339 337 338 342 341 339 339 340 339 340
339 341 344 345 344 343 338 333 337 337 337 340 343 344 345 346 347 348 349 349 348 345 346 345 338 339 340 340 342 341 341 342 343
337 340 344 344 343 340 334 332 332 332 333 337 341 343 343 343 344 346 346 346 346 345 345 345 345 342 337 339 342 341 342 342 341
340 341 344 343 342 338 331 331 331 331 330 331 331 331 332 334 337 342 343 344 344 343 343 343 342 342 342 342 344 339 339 340 339
341 342 344 342 342 337 332 332 331 331 331 333 334 336 337 332 335 335 335 337 338 339 340 340 339 338 338 339 338 336 337 338 338
341 343 342 341 342 333 333 333 332 332 335 337 338 339 338 337 333 334 336 337 337 338 339 338 338 338 337 336 336 338 339 337 338
340 341 341 343 339 334 333 334 332 335 337 338 340 340 339 338 336 331 332 333 337 337 337 338 337 337 334 338 338 338 338 338 338
340 341 341 343 337 334 335 335 337 339 339 338 338 336 335 335 336 336 336 337 336 337 335 336 337 336 337 336 337 334 334 331 331
339 341 341 343 338 337 338 339 340 340 339 337 336 334 332 334 334 335 336 337 336 336 334 333 333 333 333 335 336 335 335 335 334
340 341 342 342 338 339 341 342 340 338 338 337 336 332 327 332 333 336 333 333 332 332 333 332 331 331 332 333 334 333 334 334 335
340 341 341 341 341 341 342 337 334 331 332 334 333 327 330 333 334 333 332 331 331 331 331 331 331 332 333 333 333 332 333 333 333